Location: ?????????
(44.2517°N, 135.2292°E)
Time: 19:11:12
(UTC+00:00)

Meteor 1-21 - Visible Passes

Search period start: 14 May 2026 00:00
Search period end: 24 May 2026 00:00
Orbit: 843 x 886 km, 81.2° (Epoch: 14 May)

Date Brightness Start Highest point End Pass type
(mag) Time Alt. Az. Time Alt. Az. Time Alt. Az.
14 May 4.3 17:17:54 26° S 17:21:09 73° E 17:26:45 10° NNE visible
15 May 4.3 17:10:18 29° S 17:13:17 73° E 17:18:52 10° NNE visible
15 May 5.9 18:53:34 10° WSW 18:57:08 17° WNW 19:00:42 10° NNW visible
16 May 4.3 17:02:41 31° S 17:05:25 73° E 17:11:01 10° NNE visible
16 May 5.9 18:45:43 10° WSW 18:49:16 17° WNW 18:52:50 10° NNW visible
17 May 4.3 16:55:02 34° S 16:57:33 73° E 17:03:08 10° NNE visible
17 May 5.9 18:37:51 10° WSW 18:41:24 17° WNW 18:44:58 10° NNW visible
18 May 4.3 16:47:23 37° S 16:49:41 73° E 16:55:16 10° NNE visible
18 May 6.0 18:29:59 10° WSW 18:33:32 17° WNW 18:37:06 10° NNW visible
19 May 4.3 16:39:42 39° S 16:41:49 73° E 16:47:24 10° NNE visible
19 May 6.0 18:22:06 10° WSW 18:25:40 17° WNW 18:29:14 10° NNW visible
20 May 4.3 16:32:00 42° S 16:33:57 73° E 16:39:31 10° NNE visible
20 May 6.0 18:14:19 10° WSW 18:17:48 17° WNW 18:21:22 10° NNW visible
21 May 4.3 16:24:17 44° S 16:26:04 73° E 16:31:40 10° NNE visible
21 May 6.0 18:06:36 11° WSW 18:09:56 17° WNW 18:13:30 10° NNW visible
22 May 4.2 16:16:33 46° SSE 16:18:13 73° E 16:23:47 10° NNE visible
22 May 6.0 17:58:52 11° W 18:02:04 17° WNW 18:05:38 10° NNW visible
23 May 4.2 16:08:48 48° SSE 16:10:21 73° E 16:15:56 10° NNE visible
23 May 6.0 17:51:07 11° W 17:54:12 17° WNW 17:57:47 10° NNW visible
